When you browse on this site, cookies collect data to enhance your experience and personalize the content and advertising you see.
Visit our Privacy Policy to learn more. By continuing to use the site, you agree to this use of cookies and data.
  • In Romania
  • List of Countries
  • For 7 days
  • Water Temperature
  • Weather Map
  • Weather Widgets
  • user-avatar
    Login

    Hourly Weather Bali

    Today, 7 April, Tuesday

    Time Temperature Precipitation Wind Pressure Humidity
    00:00 +26°C° 0.1 mm 1 mps 747 mmHg 91%
    01:00 +26°C° 0.1 mm 1 mps 747 mmHg 91%
    02:00 +26°C° 0 mm 1 mps 747 mmHg 89%
    03:00 +26°C° 0 mm 1 mps 747 mmHg 90%
    04:00 +26°C° 0 mm 1 mps 747 mmHg 90%
    05:00 +26°C° 0 mm 1 mps 746 mmHg 91%
    06:00 +26°C° 0 mm 1 mps 747 mmHg 89%
    07:00 +27°C° 0 mm 1 mps 747 mmHg 87%
    08:00 +29°C° 0 mm 1 mps 748 mmHg 85%
    09:00 +30°C° 0.2 mm 1 mps 748 mmHg 79%
    10:00 +31°C° 0.2 mm 1 mps 748 mmHg 73%
    11:00 +32°C° 0.2 mm 1 mps 748 mmHg 68%
    12:00 +32°C° 1.3 mm 1 mps 747 mmHg 74%
    13:00 +31°C° 1.3 mm 1 mps 746 mmHg 80%
    14:00 +30°C° 0 mm 1 mps 746 mmHg 85%
    15:00 +30°C° 1.5 mm 1 mps 746 mmHg 86%
    16:00 +30°C° 1.5 mm 1 mps 746 mmHg 87%
    17:00 +29°C° 1.5 mm 1 mps 745 mmHg 88%
    18:00 +29°C° 1 mm 1 mps 746 mmHg 90%
    19:00 +28°C° 1 mm 1 mps 746 mmHg 91%
    20:00 +27°C° 1 mm 1 mps 746 mmHg 92%
    21:00 +27°C° 0.6 mm 1 mps 747 mmHg 92%
    22:00 +27°C° 0.6 mm 1 mps 747 mmHg 93%
    23:00 +27°C° 0.6 mm 1 mps 747 mmHg 93%

    Tomorrow, 8 April, Wednesday

    Time Temperature Precipitation Wind Pressure Humidity
    00:00 +26°C° 0.4 mm 1 mps 747 mmHg 92%
    01:00 +26°C° 0.4 mm 1 mps 747 mmHg 92%
    02:00 +26°C° 0.4 mm 1 mps 746 mmHg 92%
    03:00 +26°C° 0.1 mm 1 mps 746 mmHg 92%
    04:00 +26°C° 0.1 mm 1 mps 746 mmHg 92%
    05:00 +26°C° 0.1 mm 1 mps 746 mmHg 92%
    06:00 +26°C° 0.1 mm 1 mps 747 mmHg 90%
    07:00 +27°C° 0.1 mm 1 mps 747 mmHg 89%
    08:00 +28°C° 0.1 mm 1 mps 747 mmHg 87%
    09:00 +29°C° 0.1 mm 1 mps 747 mmHg 78%
    10:00 +31°C° 0.1 mm 1 mps 748 mmHg 70%
    11:00 +33°C° 0.1 mm 1 mps 748 mmHg 61%
    12:00 +32°C° 0.9 mm 1 mps 747 mmHg 67%
    13:00 +31°C° 0.9 mm 1 mps 747 mmHg 74%
    14:00 +31°C° 0.9 mm 1 mps 746 mmHg 80%
    15:00 +30°C° 0.8 mm 1 mps 746 mmHg 81%
    16:00 +30°C° 0.8 mm 1 mps 746 mmHg 82%
    17:00 +30°C° 0.8 mm 1 mps 746 mmHg 83%
    18:00 +29°C° 0.5 mm 1 mps 747 mmHg 85%
    19:00 +28°C° 0.5 mm 1 mps 747 mmHg 88%
    20:00 +27°C° 0.5 mm 1 mps 748 mmHg 90%
    21:00 +27°C° 1.1 mm 1 mps 748 mmHg 91%
    22:00 +26°C° 1.1 mm 1 mps 748 mmHg 91%
    23:00 +26°C° 1.1 mm 1 mps 748 mmHg 91%

    Day after tomorrow, 9 April, Thursday

    Time Temperature Precipitation Wind Pressure Humidity
    00:00 +26°C° 0.5 mm 1 mps 748 mmHg 91%
    01:00 +26°C° 0.5 mm 1 mps 748 mmHg 91%
    02:00 +26°C° 0.5 mm 1 mps 747 mmHg 91%
    03:00 +26°C° 0 mm 1 mps 747 mmHg 90%
    04:00 +26°C° 0 mm 1 mps 747 mmHg 90%
    05:00 +25°C° 0 mm 1 mps 746 mmHg 89%
    06:00 +26°C° 0 mm 1 mps 747 mmHg 87%
    07:00 +27°C° 0 mm 1 mps 748 mmHg 85%
    08:00 +28°C° 0 mm 1 mps 749 mmHg 83%
    09:00 +30°C° 0 mm 1 mps 749 mmHg 76%
    10:00 +31°C° 0 mm 1 mps 748 mmHg 69%
    11:00 +33°C° 0 mm 1 mps 748 mmHg 63%
    12:00 +32°C° 0.4 mm 1 mps 748 mmHg 66%
    13:00 +32°C° 0.4 mm 2 mps 747 mmHg 69%
    14:00 +32°C° 0.4 mm 2 mps 746 mmHg 73%
    15:00 +31°C° 0.5 mm 2 mps 746 mmHg 75%
    16:00 +31°C° 0.5 mm 2 mps 746 mmHg 78%
    17:00 +30°C° 0.5 mm 2 mps 746 mmHg 80%
    18:00 +29°C° 0.1 mm 2 mps 747 mmHg 84%
    19:00 +28°C° 0.1 mm 2 mps 748 mmHg 88%
    20:00 +27°C° 0.1 mm 2 mps 748 mmHg 91%
    21:00 +27°C° 0 mm 2 mps 748 mmHg 91%
    22:00 +27°C° 0 mm 2 mps 748 mmHg 91%
    23:00 +27°C° 0 mm 2 mps 749 mmHg 91%

    10 April, Friday

    Time Temperature Precipitation Wind Pressure Humidity
    00:00 +27°C° 0 mm 1 mps 748 mmHg 91%
    01:00 +26°C° 0 mm 1 mps 748 mmHg 90%
    02:00 +26°C° 0 mm 1 mps 748 mmHg 89%
    03:00 +26°C° 0 mm 1 mps 748 mmHg 90%
    04:00 +26°C° 0 mm 1 mps 748 mmHg 90%
    05:00 +26°C° 0 mm 1 mps 748 mmHg 90%
    06:00 +27°C° 0 mm 1 mps 748 mmHg 87%
    07:00 +28°C° 0 mm 1 mps 749 mmHg 85%
    08:00 +29°C° 0 mm 1 mps 749 mmHg 82%
    09:00 +30°C° 0 mm 1 mps 749 mmHg 75%
    10:00 +31°C° 0 mm 2 mps 749 mmHg 69%
    11:00 +34°C° 0 mm 2 mps 749 mmHg 62%
    12:00 +34°C° 0.1 mm 3 mps 748 mmHg 63%
    13:00 +34°C° 0.1 mm 3 mps 747 mmHg 64%
    14:00 +33°C° 0.1 mm 3 mps 747 mmHg 65%
    15:00 +33°C° 0.1 mm 3 mps 747 mmHg 68%
    16:00 +31°C° 0.1 mm 3 mps 746 mmHg 71%
    17:00 +31°C° 0.1 mm 3 mps 746 mmHg 74%
    18:00 +29°C° 0 mm 3 mps 747 mmHg 79%
    19:00 +28°C° 0 mm 2 mps 747 mmHg 85%
    20:00 +27°C° 0 mm 2 mps 748 mmHg 90%
    21:00 +26°C° 0.1 mm 2 mps 748 mmHg 90%
    22:00 +26°C° 0.1 mm 2 mps 748 mmHg 89%
    23:00 +26°C° 0.1 mm 2 mps 748 mmHg 89%

    11 April, Saturday

    Time Temperature Precipitation Wind Pressure Humidity
    00:00 +26°C° 0 mm 2 mps 748 mmHg 89%
    01:00 +26°C° 0 mm 2 mps 748 mmHg 90%
    02:00 +26°C° 0 mm 2 mps 748 mmHg 90%
    03:00 +26°C° 0.1 mm 1 mps 747 mmHg 90%
    04:00 +26°C° 0.1 mm 1 mps 747 mmHg 91%
    05:00 +25°C° 0.1 mm 1 mps 747 mmHg 91%
    06:00 +26°C° 0.1 mm 1 mps 747 mmHg 88%
    07:00 +27°C° 0.1 mm 1 mps 748 mmHg 85%
    08:00 +28°C° 0.1 mm 1 mps 748 mmHg 82%
    09:00 +30°C° 0.1 mm 1 mps 748 mmHg 77%
    10:00 +31°C° 0.1 mm 2 mps 748 mmHg 72%
    11:00 +32°C° 0.1 mm 2 mps 748 mmHg 67%
    12:00 +31°C° 0.5 mm 2 mps 747 mmHg 70%
    13:00 +31°C° 0.5 mm 2 mps 747 mmHg 74%
    14:00 +31°C° 0.5 mm 2 mps 746 mmHg 77%
    15:00 +30°C° 0.6 mm 2 mps 746 mmHg 78%
    16:00 +30°C° 0.6 mm 2 mps 746 mmHg 80%
    17:00 +30°C° 0.6 mm 1 mps 746 mmHg 81%
    18:00 +29°C° 0.3 mm 1 mps 746 mmHg 84%
    19:00 +28°C° 0.3 mm 1 mps 747 mmHg 87%
    20:00 +27°C° 0.3 mm 1 mps 747 mmHg 89%
    21:00 +26°C° 0 mm 1 mps 747 mmHg 90%
    22:00 +26°C° 0 mm 1 mps 748 mmHg 90%
    23:00 +26°C° 0 mm 1 mps 748 mmHg 90%

    12 April, Sunday

    Time Temperature Precipitation Wind Pressure Humidity
    00:00 +26°C° 0 mm 1 mps 747 mmHg 90%
    01:00 +26°C° 0 mm 1 mps 747 mmHg 89%
    02:00 +25°C° 0 mm 2 mps 747 mmHg 89%
    03:00 +25°C° 0 mm 1 mps 747 mmHg 89%
    04:00 +25°C° 0 mm 1 mps 746 mmHg 89%
    05:00 +25°C° 0 mm 1 mps 746 mmHg 89%
    06:00 +26°C° 0 mm 1 mps 746 mmHg 87%
    07:00 +27°C° 0 mm 1 mps 747 mmHg 84%
    08:00 +28°C° 0 mm 1 mps 747 mmHg 81%
    09:00 +29°C° 0 mm 1 mps 747 mmHg 74%
    10:00 +31°C° 0 mm 1 mps 747 mmHg 67%
    11:00 +32°C° 0 mm 1 mps 747 mmHg 60%
    12:00 +32°C° 0.2 mm 1 mps 747 mmHg 65%
    13:00 +31°C° 0.2 mm 2 mps 746 mmHg 70%
    14:00 +30°C° 0.2 mm 2 mps 745 mmHg 75%
    15:00 +30°C° 0.4 mm 2 mps 745 mmHg 78%
    16:00 +30°C° 0.4 mm 1 mps 745 mmHg 80%
    17:00 +29°C° 0.4 mm 1 mps 745 mmHg 82%
    18:00 +28°C° 0.1 mm 1 mps 746 mmHg 85%
    19:00 +28°C° 0.1 mm 1 mps 746 mmHg 88%
    20:00 +27°C° 0.1 mm 1 mps 747 mmHg 91%
    21:00 +26°C° 0 mm 1 mps 747 mmHg 91%
    22:00 +26°C° 0 mm 1 mps 747 mmHg 91%
    23:00 +26°C° 0 mm 1 mps 748 mmHg 91%
    Show more